TimeCDT,TemperatureF,Dew PointF,Humidity,Sea Level PressureIn,VisibilityMPH,Wind Direction,Wind SpeedMPH,Gust SpeedMPH,PrecipitationIn,Events,Conditions,WindDirDegrees,DateUTC
12:56 AM,54.0,32.0,43,30.15,10.0,South,9.2,-,N/A,,Clear,170,2012-09-24 05:56:00
1:56 AM,55.0,33.1,43,30.14,10.0,South,15.0,23.0,N/A,,Clear,180,2012-09-24 06:56:00
2:56 AM,54.0,33.1,45,30.13,10.0,South,15.0,-,N/A,,Clear,180,2012-09-24 07:56:00
3:56 AM,52.0,33.1,49,30.10,10.0,South,6.9,-,N/A,,Clear,190,2012-09-24 08:56:00
4:56 AM,50.0,33.1,52,30.09,10.0,South,4.6,-,N/A,,Clear,170,2012-09-24 09:56:00
5:56 AM,50.0,33.1,52,30.07,10.0,Calm,Calm,-,N/A,,Clear,0,2012-09-24 10:56:00
6:56 AM,48.0,34.0,58,30.06,10.0,SSW,6.9,-,N/A,,Clear,210,2012-09-24 11:56:00
7:56 AM,50.0,34.0,54,30.07,10.0,SSW,12.7,-,N/A,,Clear,200,2012-09-24 12:56:00
8:56 AM,53.1,35.1,50,30.05,10.0,South,10.4,-,N/A,,Clear,190,2012-09-24 13:56:00
9:56 AM,60.1,36.0,41,30.04,10.0,SSW,10.4,-,N/A,,Clear,200,2012-09-24 14:56:00
10:56 AM,66.0,37.0,34,30.01,10.0,South,13.8,-,N/A,,Clear,190,2012-09-24 15:56:00
11:56 AM,71.1,37.9,30,29.98,10.0,SSW,9.2,16.1,N/A,,Clear,200,2012-09-24 16:56:00
12:56 PM,72.0,37.9,29,29.95,10.0,WSW,9.2,-,N/A,,Clear,240,2012-09-24 17:56:00
1:56 PM,72.0,39.0,30,29.92,10.0,SSW,6.9,-,N/A,,Clear,200,2012-09-24 18:56:00
2:56 PM,73.9,39.0,28,29.88,10.0,SSW,5.8,-,N/A,,Clear,200,2012-09-24 19:56:00
3:56 PM,73.0,39.0,29,29.87,10.0,South,4.6,-,N/A,,Clear,190,2012-09-24 20:56:00
4:56 PM,73.9,39.0,28,29.84,10.0,Calm,Calm,-,N/A,,Clear,0,2012-09-24 21:56:00
5:56 PM,73.0,39.9,30,29.84,10.0,SSW,6.9,-,N/A,,Clear,200,2012-09-24 22:56:00
6:56 PM,68.0,41.0,37,29.84,10.0,South,6.9,-,N/A,,Clear,190,2012-09-24 23:56:00
7:56 PM,60.1,42.1,51,29.86,10.0,SW,6.9,-,N/A,,Clear,220,2012-09-25 00:56:00
8:56 PM,55.0,42.1,62,29.86,10.0,SSW,4.6,-,N/A,,Clear,200,2012-09-25 01:56:00
9:56 PM,55.9,42.1,60,29.85,10.0,Calm,Calm,-,N/A,,Clear,0,2012-09-25 02:56:00
10:56 PM,55.0,42.1,62,29.86,10.0,Calm,Calm,-,N/A,,Clear,0,2012-09-25 03:56:00
11:56 PM,50.0,42.1,74,29.86,10.0,Calm,Calm,-,N/A,,Clear,0,2012-09-25 04:56:00